Hourly Weather Bolshie Savrushi

Today, 23 July, Friday

Time Temperature Precipitation Wind Pressure Humidity
00:00 +14°C° 0 mm 2 mps 741 mmHg 93%
01:00 +13°C° 0 mm 2 mps 741 mmHg 93%
02:00 +13°C° 0 mm 2 mps 741 mmHg 92%
03:00 +13°C° 0 mm 2 mps 741 mmHg 91%
04:00 +14°C° 0 mm 2 mps 741 mmHg 88%
05:00 +15°C° 0 mm 1 mps 741 mmHg 85%
06:00 +16°C° 0 mm 1 mps 741 mmHg 82%
07:00 +18°C° 0.1 mm 1 mps 742 mmHg 77%
08:00 +19°C° 0.1 mm 1 mps 742 mmHg 72%
09:00 +18°C° 0 mm 0 mps 742 mmHg 65%
10:00 +20°C° 0.2 mm 1 mps 742 mmHg 63%
11:00 +21°C° 0.2 mm 1 mps 742 mmHg 60%
12:00 +21°C° 0.2 mm 1 mps 742 mmHg 57%
13:00 +22°C° 0 mm 1 mps 742 mmHg 55%
14:00 +22°C° 0 mm 1 mps 742 mmHg 53%
15:00 +23°C° 0 mm 1 mps 741 mmHg 51%
16:00 +22°C° 0 mm 1 mps 741 mmHg 55%
17:00 +22°C° 0 mm 1 mps 741 mmHg 58%
18:00 +22°C° 0 mm 1 mps 741 mmHg 61%
19:00 +19°C° 0 mm 2 mps 741 mmHg 62%
20:00 +18°C° 0 mm 2 mps 741 mmHg 64%
21:00 +16°C° 0 mm 2 mps 741 mmHg 65%
22:00 +16°C° 0 mm 2 mps 742 mmHg 65%
23:00 +16°C° 0 mm 2 mps 742 mmHg 66%

Tomorrow, 24 July, Saturday

Time Temperature Precipitation Wind Pressure Humidity
00:00 +15°C° 0 mm 1 mps 742 mmHg 66%
01:00 +15°C° 0 mm 2 mps 742 mmHg 67%
02:00 +15°C° 0 mm 2 mps 742 mmHg 68%
03:00 +14°C° 0 mm 3 mps 742 mmHg 68%
04:00 +14°C° 0 mm 3 mps 742 mmHg 70%
05:00 +16°C° 0 mm 3 mps 742 mmHg 71%
06:00 +16°C° 0 mm 3 mps 742 mmHg 73%
07:00 +17°C° 0 mm 4 mps 742 mmHg 68%
08:00 +19°C° 0 mm 4 mps 743 mmHg 64%
09:00 +20°C° 0 mm 4 mps 743 mmHg 60%
10:00 +20°C° 0.3 mm 5 mps 743 mmHg 61%
11:00 +20°C° 0.3 mm 5 mps 743 mmHg 61%
12:00 +20°C° 0.3 mm 6 mps 744 mmHg 62%
13:00 +20°C° 0.4 mm 5 mps 744 mmHg 63%
14:00 +20°C° 0.4 mm 5 mps 745 mmHg 63%
15:00 +20°C° 0.4 mm 5 mps 745 mmHg 63%
16:00 +19°C° 0.1 mm 5 mps 746 mmHg 63%
17:00 +18°C° 0.1 mm 4 mps 746 mmHg 63%
18:00 +18°C° 0.1 mm 4 mps 747 mmHg 62%
19:00 +16°C° 0 mm 3 mps 747 mmHg 65%
20:00 +14°C° 0 mm 3 mps 748 mmHg 67%
21:00 +14°C° 0 mm 2 mps 749 mmHg 69%
22:00 +13°C° 0 mm 2 mps 749 mmHg 68%
23:00 +12°C° 0 mm 3 mps 749 mmHg 67%

Day after tomorrow, 25 July, Sunday

Time Temperature Precipitation Wind Pressure Humidity
00:00 +11°C° 0 mm 3 mps 750 mmHg 66%
01:00 +10°C° 0 mm 3 mps 750 mmHg 66%
02:00 +9°C° 0 mm 3 mps 751 mmHg 67%
03:00 +9°C° 0 mm 3 mps 751 mmHg 67%
04:00 +9°C° 0 mm 3 mps 752 mmHg 64%
05:00 +10°C° 0 mm 3 mps 752 mmHg 61%
06:00 +11°C° 0 mm 3 mps 753 mmHg 58%
07:00 +13°C° 0 mm 3 mps 753 mmHg 54%
08:00 +16°C° 0 mm 3 mps 753 mmHg 49%
09:00 +17°C° 0 mm 3 mps 753 mmHg 44%
10:00 +18°C° 0 mm 3 mps 754 mmHg 42%
11:00 +19°C° 0 mm 3 mps 754 mmHg 40%
12:00 +20°C° 0 mm 3 mps 754 mmHg 37%
13:00 +20°C° 0 mm 3 mps 754 mmHg 37%
14:00 +20°C° 0 mm 3 mps 754 mmHg 37%
15:00 +21°C° 0 mm 3 mps 754 mmHg 36%
16:00 +20°C° 0 mm 2 mps 754 mmHg 42%
17:00 +20°C° 0 mm 2 mps 754 mmHg 47%
18:00 +20°C° 0 mm 1 mps 754 mmHg 53%
19:00 +19°C° 0 mm 1 mps 754 mmHg 52%
20:00 +18°C° 0 mm 1 mps 755 mmHg 52%
21:00 +16°C° 0 mm 1 mps 755 mmHg 51%
22:00 +16°C° 0 mm 1 mps 755 mmHg 51%
23:00 +15°C° 0 mm 1 mps 755 mmHg 51%

26 July, Monday

Time Temperature Precipitation Wind Pressure Humidity
00:00 +15°C° 0 mm 1 mps 755 mmHg 52%
01:00 +15°C° 0 mm 1 mps 756 mmHg 52%
02:00 +14°C° 0 mm 1 mps 756 mmHg 53%
03:00 +14°C° 0 mm 1 mps 756 mmHg 54%
04:00 +15°C° 0 mm 1 mps 756 mmHg 55%
05:00 +15°C° 0 mm 1 mps 756 mmHg 55%
06:00 +16°C° 0 mm 1 mps 756 mmHg 56%
07:00 +18°C° 0 mm 1 mps 756 mmHg 53%
08:00 +18°C° 0 mm 2 mps 756 mmHg 50%
09:00 +19°C° 0 mm 2 mps 756 mmHg 47%
10:00 +19°C° 0 mm 2 mps 756 mmHg 47%
11:00 +20°C° 0 mm 2 mps 756 mmHg 46%
12:00 +20°C° 0 mm 3 mps 756 mmHg 46%
13:00 +21°C° 0 mm 3 mps 756 mmHg 44%
14:00 +22°C° 0 mm 3 mps 756 mmHg 43%
15:00 +22°C° 0 mm 4 mps 755 mmHg 41%
16:00 +21°C° 0 mm 3 mps 755 mmHg 46%
17:00 +20°C° 0 mm 2 mps 755 mmHg 52%
18:00 +19°C° 0 mm 2 mps 755 mmHg 57%
19:00 +19°C° 0 mm 2 mps 755 mmHg 57%
20:00 +19°C° 0 mm 2 mps 755 mmHg 57%
21:00 +18°C° 0 mm 2 mps 754 mmHg 57%
22:00 +17°C° 0 mm 2 mps 754 mmHg 59%
23:00 +16°C° 0 mm 2 mps 754 mmHg 62%

27 July, Tuesday

Time Temperature Precipitation Wind Pressure Humidity
00:00 +15°C° 0 mm 2 mps 754 mmHg 65%
01:00 +15°C° 0 mm 2 mps 754 mmHg 63%
02:00 +16°C° 0 mm 2 mps 754 mmHg 61%
03:00 +16°C° 0 mm 2 mps 754 mmHg 59%
04:00 +16°C° 0 mm 2 mps 754 mmHg 61%
05:00 +17°C° 0 mm 3 mps 754 mmHg 62%
06:00 +17°C° 0 mm 3 mps 754 mmHg 63%
07:00 +18°C° 0 mm 3 mps 754 mmHg 60%
08:00 +20°C° 0 mm 3 mps 754 mmHg 57%
09:00 +21°C° 0 mm 4 mps 754 mmHg 54%
10:00 +22°C° 0 mm 4 mps 753 mmHg 52%
11:00 +23°C° 0 mm 4 mps 753 mmHg 50%
12:00 +23°C° 0 mm 4 mps 753 mmHg 48%
13:00 +25°C° 0 mm 4 mps 753 mmHg 48%
14:00 +25°C° 0 mm 5 mps 752 mmHg 47%
15:00 +26°C° 0 mm 5 mps 752 mmHg 47%
16:00 +23°C° 0.1 mm 4 mps 752 mmHg 56%
17:00 +21°C° 0.1 mm 3 mps 752 mmHg 65%
18:00 +20°C° 0.1 mm 2 mps 752 mmHg 74%
19:00 +19°C° 0.1 mm 2 mps 752 mmHg 78%
20:00 +18°C° 0.1 mm 2 mps 752 mmHg 81%
21:00 +18°C° 0.1 mm 1 mps 753 mmHg 85%
22:00 +16°C° 0 mm 1 mps 753 mmHg 84%
23:00 +16°C° 0 mm 1 mps 753 mmHg 84%

28 July, Wednesday

Time Temperature Precipitation Wind Pressure Humidity
00:00 +15°C° 0 mm 1 mps 753 mmHg 84%
01:00 +15°C° 0 mm 1 mps 753 mmHg 84%
02:00 +14°C° 0 mm 1 mps 753 mmHg 84%
03:00 +13°C° 0 mm 1 mps 753 mmHg 85%
04:00 +14°C° 0 mm 1 mps 753 mmHg 82%
05:00 +15°C° 0 mm 1 mps 753 mmHg 80%
06:00 +16°C° 0 mm 1 mps 753 mmHg 78%
07:00 +19°C° 0 mm 1 mps 753 mmHg 71%
08:00 +20°C° 0 mm 1 mps 753 mmHg 65%
09:00 +21°C° 0 mm 2 mps 753 mmHg 59%
10:00 +23°C° 0 mm 2 mps 753 mmHg 55%
11:00 +24°C° 0 mm 2 mps 753 mmHg 50%
12:00 +25°C° 0 mm 3 mps 752 mmHg 46%
13:00 +26°C° 0 mm 3 mps 752 mmHg 43%
14:00 +26°C° 0 mm 3 mps 752 mmHg 41%
15:00 +26°C° 0 mm 4 mps 752 mmHg 39%
16:00 +26°C° 0 mm 3 mps 751 mmHg 44%
17:00 +25°C° 0 mm 2 mps 751 mmHg 49%
18:00 +24°C° 0 mm 2 mps 751 mmHg 54%
19:00 +23°C° 0 mm 2 mps 751 mmHg 55%
20:00 +21°C° 0 mm 1 mps 751 mmHg 57%
21:00 +19°C° 0 mm 1 mps 751 mmHg 58%
22:00 +18°C° 0 mm 2 mps 751 mmHg 58%
23:00 +18°C° 0 mm 2 mps 751 mmHg 58%
Show more

We Need Your Consent

Meteoprog and our Service Providers may store and access personal data such as cookies, device identifiers or other similar technologies on your device and process such data to personalise content and ads, as well as provide social media features and to analyse the traffic.

  • Store and/or access information on your device

    Cookies, device identifiers or other information can be stored or accessed on your device for the purposes indicated above.

  • Personalised ads and content, ad and content measurement, audience insights, and products development

    Ads and content can be personalised based on a profile. More data can be added to better personalise ads and content. Ad and content performance can be measured. Insights about the audience who saw the ads and content can be derived. Such data can be used to develop or improve user’s experience, systems and software.

By clicking ‘I Agree’ you will allow the use of indicated cookies, device identifiers, web beacons or other similar technologies. Your settings can be changed in the browser on your device.

For certain purposes, legitimate interests may be relied on, rather than consent. You can read more about this in our Privacy and Cookie Policy.